Time,TemperatureF,DewpointF,PressureIn,WindDirection,WindDirectionDegrees,WindSpeedMPH,WindSpeedGustMPH,Humidity,HourlyPrecipIn,Conditions,Clouds,dailyrainin,SoftwareType,DateUTC
2013-03-18 00:02:00,36.0,13.0,-100.00,NNE,20,11.0,13.0,38,-99.99,,,-99.99,,2013-03-18 04:02:00,
2013-03-18 00:22:00,35.0,12.0,-100.00,North,10,11.0,13.0,39,-99.99,,,-99.99,,2013-03-18 04:22:00,
2013-03-18 00:32:00,35.0,12.0,-100.00,North,10,11.0,13.0,39,-99.99,,,-99.99,,2013-03-18 04:32:00,
2013-03-18 00:41:00,35.0,12.0,-100.00,North,10,11.0,13.0,39,-99.99,,,-99.99,,2013-03-18 04:41:00,
2013-03-18 00:52:00,35.0,12.0,-100.00,North,10,11.0,13.0,39,-99.99,,,-99.99,,2013-03-18 04:52:00,
2013-03-18 01:01:00,35.0,12.0,-100.00,North,10,11.0,13.0,39,-99.99,,,-99.99,,2013-03-18 05:01:00,
2013-03-18 01:11:00,34.0,14.0,-100.00,NNE,20,11.0,13.0,42,-99.99,,,-99.99,,2013-03-18 05:11:00,
2013-03-18 01:22:00,34.0,13.0,-100.00,NNE,20,13.0,16.0,41,-99.99,,,-99.99,,2013-03-18 05:22:00,
2013-03-18 01:32:00,34.0,13.0,-100.00,NNE,20,13.0,16.0,41,-99.99,,,-99.99,,2013-03-18 05:32:00,
2013-03-18 01:42:00,34.0,13.0,-100.00,NNE,20,13.0,16.0,41,-99.99,,,-99.99,,2013-03-18 05:42:00,
2013-03-18 01:51:00,34.0,13.0,-100.00,NNE,20,13.0,16.0,41,-99.99,,,-99.99,,2013-03-18 05:51:00,
2013-03-18 02:01:00,34.0,13.0,-100.00,NNE,20,13.0,16.0,41,-99.99,,,-99.99,,2013-03-18 06:01:00,
2013-03-18 02:11:00,33.0,12.0,-100.00,NNE,20,11.0,18.0,42,-99.99,,,-99.99,,2013-03-18 06:11:00,
2013-03-18 02:21:00,33.0,12.0,-100.00,NNE,20,11.0,18.0,42,-99.99,,,-99.99,,2013-03-18 06:21:00,
2013-03-18 02:31:00,33.0,12.0,-100.00,NNE,20,11.0,18.0,42,-99.99,,,-99.99,,2013-03-18 06:31:00,
2013-03-18 02:41:00,33.0,12.0,-100.00,NNE,20,11.0,18.0,42,-99.99,,,-99.99,,2013-03-18 06:41:00,
2013-03-18 02:51:00,33.0,12.0,-100.00,NNE,20,11.0,18.0,42,-99.99,,,-99.99,,2013-03-18 06:51:00,
2013-03-18 03:01:00,33.0,12.0,-100.00,NNE,20,11.0,18.0,42,-99.99,,,-99.99,,2013-03-18 07:01:00,
2013-03-18 03:11:00,31.0,10.0,-100.00,NNE,20,13.0,16.0,40,-99.99,,,-99.99,,2013-03-18 07:11:00,
2013-03-18 03:21:00,31.0,10.0,-100.00,NNE,20,13.0,16.0,40,-99.99,,,-99.99,,2013-03-18 07:21:00,
2013-03-18 03:31:00,31.0,10.0,-100.00,NNE,20,13.0,16.0,40,-99.99,,,-99.99,,2013-03-18 07:31:00,
2013-03-18 03:42:00,31.0,10.0,-100.00,NNE,20,13.0,16.0,40,-99.99,,,-99.99,,2013-03-18 07:42:00,
2013-03-18 03:52:00,31.0,10.0,-100.00,NNE,20,13.0,16.0,40,-99.99,,,-99.99,,2013-03-18 07:52:00,
2013-03-18 04:01:00,31.0,10.0,-100.00,NNE,20,13.0,16.0,40,-99.99,,,-99.99,,2013-03-18 08:01:00,
2013-03-18 04:21:00,30.0,12.0,-100.00,NNE,20,13.0,18.0,45,-99.99,,,-99.99,,2013-03-18 08:21:00,
2013-03-18 04:31:00,30.0,12.0,-100.00,NNE,20,13.0,18.0,45,-99.99,,,-99.99,,2013-03-18 08:31:00,
2013-03-18 04:42:00,30.0,12.0,-100.00,NNE,20,13.0,18.0,45,-99.99,,,-99.99,,2013-03-18 08:42:00,
2013-03-18 04:51:00,30.0,12.0,-100.00,NNE,20,13.0,18.0,45,-99.99,,,-99.99,,2013-03-18 08:51:00,
2013-03-18 05:01:00,30.0,12.0,-100.00,NNE,20,13.0,18.0,45,-99.99,,,-99.99,,2013-03-18 09:01:00,
2013-03-18 05:11:00,30.0,11.0,-100.00,NNE,20,13.0,16.0,45,-99.99,,,-99.99,,2013-03-18 09:11:00,
2013-03-18 05:22:00,30.0,11.0,-100.00,NNE,20,13.0,16.0,45,-99.99,,,-99.99,,2013-03-18 09:22:00,
2013-03-18 05:32:00,30.0,11.0,-100.00,NNE,20,13.0,16.0,45,-99.99,,,-99.99,,2013-03-18 09:32:00,
2013-03-18 05:42:00,30.0,11.0,-100.00,NNE,20,13.0,16.0,45,-99.99,,,-99.99,,2013-03-18 09:42:00,
2013-03-18 05:52:00,30.0,11.0,-100.00,NNE,20,13.0,16.0,45,-99.99,,,-99.99,,2013-03-18 09:52:00,
2013-03-18 06:02:00,30.0,11.0,-100.00,NNE,20,13.0,16.0,45,-99.99,,,-99.99,,2013-03-18 10:02:00,
2013-03-18 06:12:00,29.0,11.0,-100.00,NE,40,13.0,18.0,44,-99.99,,,-99.99,,2013-03-18 10:12:00,
2013-03-18 06:22:00,29.0,11.0,-100.00,NE,40,13.0,18.0,44,-99.99,,,-99.99,,2013-03-18 10:22:00,
2013-03-18 06:32:00,29.0,11.0,-100.00,NE,40,13.0,18.0,44,-99.99,,,-99.99,,2013-03-18 10:32:00,
2013-03-18 06:41:00,29.0,11.0,-100.00,NE,40,13.0,18.0,44,-99.99,,,-99.99,,2013-03-18 10:41:00,
2013-03-18 06:52:00,29.0,11.0,-100.00,NE,40,13.0,18.0,44,-99.99,,,-99.99,,2013-03-18 10:52:00,
2013-03-18 07:02:00,29.0,11.0,-100.00,NE,40,13.0,18.0,44,-99.99,,,-99.99,,2013-03-18 11:02:00,
2013-03-18 07:11:00,29.0,13.0,-100.00,ENE,60,16.0,18.0,51,-99.99,,,-99.99,,2013-03-18 11:11:00,
2013-03-18 07:21:00,29.0,13.0,-100.00,ENE,60,16.0,18.0,51,-99.99,,,-99.99,,2013-03-18 11:21:00,
2013-03-18 07:31:00,29.0,13.0,-100.00,ENE,60,16.0,18.0,51,-99.99,,,-99.99,,2013-03-18 11:31:00,
2013-03-18 07:42:00,29.0,13.0,-100.00,ENE,60,16.0,18.0,51,-99.99,,,-99.99,,2013-03-18 11:42:00,
2013-03-18 07:52:00,29.0,13.0,-100.00,ENE,60,16.0,18.0,51,-99.99,,,-99.99,,2013-03-18 11:52:00,
2013-03-18 08:01:00,29.0,13.0,-100.00,ENE,60,16.0,18.0,51,-99.99,,,-99.99,,2013-03-18 12:01:00,
2013-03-18 08:12:00,29.0,15.0,-100.00,ENE,60,16.0,20.0,53,-99.99,,,-99.99,,2013-03-18 12:12:00,
2013-03-18 08:21:00,29.0,15.0,-100.00,ENE,60,16.0,20.0,53,-99.99,,,-99.99,,2013-03-18 12:21:00,
2013-03-18 08:31:00,29.0,15.0,-100.00,ENE,60,16.0,20.0,53,-99.99,,,-99.99,,2013-03-18 12:31:00,
2013-03-18 08:41:00,29.0,15.0,-100.00,ENE,60,16.0,20.0,53,-99.99,,,-99.99,,2013-03-18 12:41:00,
2013-03-18 08:51:00,29.0,15.0,-100.00,ENE,60,16.0,20.0,53,-99.99,,,-99.99,,2013-03-18 12:51:00,
2013-03-18 09:01:00,29.0,15.0,-100.00,ENE,60,16.0,20.0,53,-99.99,,,-99.99,,2013-03-18 13:01:00,
2013-03-18 09:11:00,29.0,14.0,-100.00,ENE,60,16.0,18.0,54,-99.99,,,-99.99,,2013-03-18 13:11:00,
2013-03-18 09:21:00,29.0,14.0,-100.00,ENE,60,16.0,18.0,54,-99.99,,,-99.99,,2013-03-18 13:21:00,
2013-03-18 09:31:00,29.0,14.0,-100.00,ENE,60,16.0,18.0,54,-99.99,,,-99.99,,2013-03-18 13:31:00,
2013-03-18 09:42:00,29.0,14.0,-100.00,ENE,60,16.0,18.0,54,-99.99,,,-99.99,,2013-03-18 13:42:00,
2013-03-18 09:52:00,29.0,14.0,-100.00,ENE,60,16.0,18.0,54,-99.99,,,-99.99,,2013-03-18 13:52:00,
2013-03-18 10:02:00,29.0,14.0,-100.00,ENE,60,16.0,18.0,54,-99.99,,,-99.99,,2013-03-18 14:02:00,
2013-03-18 10:11:00,29.0,15.0,-100.00,ENE,60,16.0,20.0,55,-99.99,,,-99.99,,2013-03-18 14:11:00,
2013-03-18 10:21:00,29.0,15.0,-100.00,ENE,60,16.0,20.0,55,-99.99,,,-99.99,,2013-03-18 14:21:00,
2013-03-18 10:31:00,29.0,15.0,-100.00,ENE,60,16.0,20.0,55,-99.99,,,-99.99,,2013-03-18 14:31:00,
2013-03-18 10:42:00,29.0,15.0,-100.00,ENE,60,16.0,20.0,55,-99.99,,,-99.99,,2013-03-18 14:42:00,
2013-03-18 10:51:00,29.0,15.0,-100.00,ENE,60,16.0,20.0,55,-99.99,,,-99.99,,2013-03-18 14:51:00,
2013-03-18 11:01:00,29.0,15.0,-100.00,ENE,60,16.0,20.0,55,-99.99,,,-99.99,,2013-03-18 15:01:00,
2013-03-18 11:21:00,30.0,14.0,-100.00,East,80,16.0,22.0,52,-99.99,,,-99.99,,2013-03-18 15:21:00,
2013-03-18 11:32:00,30.0,14.0,-100.00,East,80,16.0,22.0,52,-99.99,,,-99.99,,2013-03-18 15:32:00,
2013-03-18 11:42:00,30.0,14.0,-100.00,East,80,16.0,22.0,52,-99.99,,,-99.99,,2013-03-18 15:42:00,
2013-03-18 11:52:00,30.0,14.0,-100.00,East,80,16.0,22.0,52,-99.99,,,-99.99,,2013-03-18 15:52:00,
2013-03-18 12:02:00,30.0,14.0,-100.00,East,80,16.0,22.0,52,-99.99,,,-99.99,,2013-03-18 16:02:00,
2013-03-18 12:12:00,30.0,17.0,-100.00,East,80,18.0,22.0,57,-99.99,,,-99.99,,2013-03-18 16:12:00,
2013-03-18 12:22:00,30.0,17.0,-100.00,East,80,18.0,22.0,57,-99.99,,,-99.99,,2013-03-18 16:22:00,
2013-03-18 12:32:00,30.0,17.0,-100.00,East,80,18.0,22.0,57,-99.99,,,-99.99,,2013-03-18 16:32:00,
2013-03-18 12:42:00,30.0,17.0,-100.00,East,80,18.0,22.0,57,-99.99,,,-99.99,,2013-03-18 16:42:00,
2013-03-18 12:52:00,30.0,17.0,-100.00,East,80,18.0,22.0,57,-99.99,,,-99.99,,2013-03-18 16:52:00,
2013-03-18 13:02:00,30.0,17.0,-100.00,East,80,18.0,22.0,57,-99.99,,,-99.99,,2013-03-18 17:02:00,
2013-03-18 13:21:00,30.0,17.0,-100.00,ENE,70,18.0,20.0,57,-99.99,,,-99.99,,2013-03-18 17:21:00,
2013-03-18 13:32:00,30.0,17.0,-100.00,ENE,70,18.0,20.0,57,-99.99,,,-99.99,,2013-03-18 17:32:00,
2013-03-18 13:42:00,30.0,17.0,-100.00,ENE,70,18.0,20.0,57,-99.99,,,-99.99,,2013-03-18 17:42:00,
2013-03-18 13:52:00,30.0,17.0,-100.00,ENE,70,18.0,20.0,57,-99.99,,,-99.99,,2013-03-18 17:52:00,
2013-03-18 14:01:00,30.0,17.0,-100.00,ENE,70,18.0,20.0,57,-99.99,,,-99.99,,2013-03-18 18:01:00,
2013-03-18 14:21:00,31.0,17.0,-100.00,ENE,70,18.0,22.0,57,-99.99,,,-99.99,,2013-03-18 18:21:00,
2013-03-18 14:31:00,31.0,17.0,-100.00,ENE,70,18.0,22.0,57,-99.99,,,-99.99,,2013-03-18 18:31:00,
2013-03-18 14:41:00,31.0,17.0,-100.00,ENE,70,18.0,22.0,57,-99.99,,,-99.99,,2013-03-18 18:41:00,
2013-03-18 14:52:00,31.0,17.0,-100.00,ENE,70,18.0,22.0,57,-99.99,,,-99.99,,2013-03-18 18:52:00,
2013-03-18 15:01:00,31.0,17.0,-100.00,ENE,70,18.0,22.0,57,-99.99,,,-99.99,,2013-03-18 19:01:00,
2013-03-18 15:11:00,31.0,20.0,-100.00,ENE,70,20.0,25.0,61,-99.99,,,-99.99,,2013-03-18 19:11:00,
2013-03-18 15:21:00,31.0,20.0,-100.00,ENE,70,20.0,25.0,61,-99.99,,,-99.99,,2013-03-18 19:21:00,
2013-03-18 15:31:00,31.0,20.0,-100.00,ENE,70,20.0,25.0,61,-99.99,,,-99.99,,2013-03-18 19:31:00,
2013-03-18 15:41:00,31.0,20.0,-100.00,ENE,70,20.0,25.0,61,-99.99,,,-99.99,,2013-03-18 19:41:00,
2013-03-18 15:52:00,31.0,20.0,-100.00,ENE,70,20.0,25.0,61,-99.99,,,-99.99,,2013-03-18 19:52:00,
2013-03-18 16:02:00,31.0,20.0,-100.00,ENE,70,20.0,25.0,61,-99.99,,,-99.99,,2013-03-18 20:02:00,
2013-03-18 16:21:00,32.0,21.0,-100.00,East,80,20.0,25.0,63,-99.99,,,-99.99,,2013-03-18 20:21:00,
2013-03-18 16:31:00,32.0,21.0,-100.00,East,80,20.0,25.0,63,-99.99,,,-99.99,,2013-03-18 20:31:00,
2013-03-18 16:42:00,32.0,21.0,-100.00,East,80,20.0,25.0,63,-99.99,,,-99.99,,2013-03-18 20:42:00,
2013-03-18 16:51:00,32.0,21.0,-100.00,East,80,20.0,25.0,63,-99.99,,,-99.99,,2013-03-18 20:51:00,
2013-03-18 17:01:00,32.0,21.0,-100.00,East,80,20.0,25.0,63,-99.99,,,-99.99,,2013-03-18 21:01:00,
2013-03-18 17:11:00,33.0,22.0,-100.00,East,80,20.0,25.0,62,-99.99,,,-99.99,,2013-03-18 21:11:00,
2013-03-18 17:21:00,33.0,22.0,-100.00,East,80,20.0,25.0,62,-99.99,,,-99.99,,2013-03-18 21:21:00,
2013-03-18 17:32:00,33.0,22.0,-100.00,East,80,20.0,25.0,62,-99.99,,,-99.99,,2013-03-18 21:32:00,
2013-03-18 17:42:00,33.0,22.0,-100.00,East,80,20.0,25.0,62,-99.99,,,-99.99,,2013-03-18 21:42:00,
2013-03-18 17:52:00,33.0,22.0,-100.00,East,80,20.0,25.0,62,-99.99,,,-99.99,,2013-03-18 21:52:00,
2013-03-18 18:02:00,33.0,22.0,-100.00,East,80,20.0,25.0,62,-99.99,,,-99.99,,2013-03-18 22:02:00,
2013-03-18 18:12:00,34.0,24.0,-100.00,East,80,22.0,27.0,67,-99.99,,,-99.99,,2013-03-18 22:12:00,
2013-03-18 18:22:00,34.0,24.0,-100.00,East,80,22.0,27.0,67,-99.99,,,-99.99,,2013-03-18 22:22:00,
2013-03-18 18:32:00,34.0,24.0,-100.00,East,80,22.0,27.0,67,-99.99,,,-99.99,,2013-03-18 22:32:00,
2013-03-18 18:41:00,34.0,24.0,-100.00,East,80,22.0,27.0,67,-99.99,,,-99.99,,2013-03-18 22:41:00,
2013-03-18 18:52:00,34.0,24.0,-100.00,East,80,22.0,27.0,67,-99.99,,,-99.99,,2013-03-18 22:52:00,
2013-03-18 19:02:00,34.0,24.0,-100.00,East,80,22.0,27.0,67,-99.99,,,-99.99,,2013-03-18 23:02:00,
2013-03-18 19:22:00,35.0,23.0,-100.00,East,90,18.0,25.0,62,-99.99,,,-99.99,,2013-03-18 23:22:00,
2013-03-18 19:32:00,35.0,23.0,-100.00,East,90,18.0,25.0,62,-99.99,,,-99.99,,2013-03-18 23:32:00,
2013-03-18 19:41:00,35.0,23.0,-100.00,East,90,18.0,25.0,62,-99.99,,,-99.99,,2013-03-18 23:41:00,
2013-03-18 19:52:00,35.0,23.0,-100.00,East,90,18.0,25.0,62,-99.99,,,-99.99,,2013-03-18 23:52:00,
2013-03-18 20:01:00,35.0,23.0,-100.00,East,90,18.0,25.0,62,-99.99,,,-99.99,,2013-03-19 00:01:00,
2013-03-18 20:21:00,33.0,29.0,-100.00,East,90,22.0,29.0,87,-99.99,,,-99.99,,2013-03-19 00:21:00,
2013-03-18 20:32:00,33.0,29.0,-100.00,East,90,22.0,29.0,87,-99.99,,,-99.99,,2013-03-19 00:32:00,
2013-03-18 20:42:00,33.0,29.0,-100.00,East,90,22.0,29.0,87,-99.99,,,-99.99,,2013-03-19 00:42:00,
2013-03-18 20:51:00,33.0,29.0,-100.00,East,90,22.0,29.0,87,-99.99,,,-99.99,,2013-03-19 00:51:00,
2013-03-18 21:01:00,33.0,29.0,-100.00,East,90,22.0,29.0,87,-99.99,,,-99.99,,2013-03-19 01:01:00,
2013-03-18 21:11:00,33.0,30.0,-100.00,East,100,25.0,29.0,89,-99.99,,,-99.99,,2013-03-19 01:11:00,
2013-03-18 21:21:00,32.0,31.0,-100.00,East,90,25.0,29.0,95,-99.99,,,-99.99,,2013-03-19 01:21:00,
2013-03-18 21:31:00,32.0,31.0,-100.00,East,90,25.0,29.0,95,-99.99,,,-99.99,,2013-03-19 01:31:00,
2013-03-18 21:42:00,32.0,31.0,-100.00,East,90,25.0,29.0,95,-99.99,,,-99.99,,2013-03-19 01:42:00,
2013-03-18 21:52:00,32.0,31.0,-100.00,East,90,25.0,29.0,95,-99.99,,,-99.99,,2013-03-19 01:52:00,
2013-03-18 22:01:00,32.0,31.0,-100.00,East,90,25.0,29.0,95,-99.99,,,-99.99,,2013-03-19 02:01:00,
2013-03-18 22:11:00,32.0,31.0,-100.00,East,90,25.0,29.0,97,-99.99,,,-99.99,,2013-03-19 02:11:00,
2013-03-18 22:21:00,32.0,32.0,-100.00,East,80,25.0,29.0,99,-99.99,,,-99.99,,2013-03-19 02:21:00,
2013-03-18 22:31:00,32.0,32.0,-100.00,East,80,25.0,29.0,99,-99.99,,,-99.99,,2013-03-19 02:31:00,
2013-03-18 22:41:00,32.0,32.0,-100.00,East,80,25.0,29.0,99,-99.99,,,-99.99,,2013-03-19 02:41:00,
2013-03-18 22:51:00,32.0,32.0,-100.00,East,80,25.0,29.0,99,-99.99,,,-99.99,,2013-03-19 02:51:00,
2013-03-18 23:01:00,32.0,32.0,-100.00,East,80,25.0,29.0,99,-99.99,,,-99.99,,2013-03-19 03:01:00,
2013-03-18 23:21:00,34.0,34.0,-100.00,East,80,25.0,31.0,100,-99.99,,,-99.99,,2013-03-19 03:21:00,
2013-03-18 23:32:00,34.0,34.0,-100.00,East,80,25.0,31.0,100,-99.99,,,-99.99,,2013-03-19 03:32:00,
2013-03-18 23:42:00,34.0,34.0,-100.00,East,80,25.0,31.0,100,-99.99,,,-99.99,,2013-03-19 03:42:00,
2013-03-18 23:53:00,34.0,34.0,-100.00,East,80,25.0,31.0,100,-99.99,,,-99.99,,2013-03-19 03:53:00,